Thief River Falls, MN

11:11 AM CST on January 23, 2017 (GMT -0600)
Thief River Falls Regional

Weather History for KTVF - December, 2014

Change the Weather History Date:

Monday, December 15, 2014

  Actual Average Record
Temperature  
Mean Temperature 20 °F -  
Max Temperature 33 °F 19 °F 35 °F (1997)
Min Temperature 8 °F 6 °F -25 °F (2013)
Degree Days  
Heating Degree Days 44    
Moisture  
Dew Point 18 °F    
Average Humidity 87    
Maximum Humidity 100    
Minimum Humidity 73    
Precipitation  
Precipitation 0.01 in - - ()
Sea Level Pressure  
Sea Level Pressure 30.00 in    
Wind  
Wind Speed 17 mph (NNW)    
Max Wind Speed 23 mph    
Max Gust Speed 30 mph    
Visibility 9 miles    
Events      
Averages and records for this station are not official NWS values.
T = Trace of Precipitation, MM = Missing Value Source: NWS Daily Summary

Daily Weather History Graph

Daily Weather History Graph

Search for Another Location

Airport or City:

Trip Planner

Search our weather history database for the weather conditions in past years. The results will help you decide how hot, cold, wet, or windy it might be!

Date:

Astronomy

Dec. 15, 2014 Rise Set
Actual Time 8:08 AM CST 4:31 PM CST
Civil Twilight 7:31 AM CST 5:08 PM CST
Nautical Twilight 6:52 AM CST 5:47 PM CST
Astronomical Twilight 6:14 AM CST 6:25 PM CST
Moon 1:01 AM CST (12/15) 12:56 PM CST (12/15)
Length of Visible Light 9h 36m
Length of Day
8h 23m
Last Quarter, 39% of the Moon is Illuminated
Dec 15
Last Quarter
Dec 21
New
Dec 28
First Quarter
Jan 4
Full
Jan 13
Last Quarter

Hourly Weather History & Observations

Time (CST) Temp. Windchill Dew Point Humidity Pressure Visibility Wind Dir Wind Speed Gust Speed Precip Events Conditions
12:15 AM 33.8 °F 23.5 °F 33.8 °F 100% 29.79 in 3.0 mi NNW 16.1 mph 20.7 mph 0.01 in   Overcast
12:35 AM 33.8 °F 24.3 °F 30.2 °F 87% 29.80 in 7.0 mi NNW 13.8 mph - 0.01 in   Overcast
12:55 AM 32.0 °F 22.1 °F 32.0 °F 100% 29.80 in 9.0 mi NNW 13.8 mph - 0.01 in   Overcast
1:15 AM 32.0 °F 23.0 °F 30.2 °F 93% 29.80 in 7.0 mi NNW 11.5 mph - N/A   Overcast
1:35 AM 32.0 °F 21.6 °F 30.2 °F 93% 29.81 in 10.0 mi NNW 15.0 mph - N/A   Overcast
1:55 AM 32.0 °F 21.6 °F 30.2 °F 93% 29.82 in 9.0 mi NNW 15.0 mph - N/A   Overcast
2:15 AM 32.0 °F 21.2 °F 32.0 °F 100% 29.82 in 10.0 mi NNW 16.1 mph - N/A   Overcast
2:35 AM 32.0 °F 21.2 °F 30.2 °F 93% 29.83 in 8.0 mi NNW 16.1 mph - N/A   Overcast
2:55 AM 32.0 °F 22.1 °F 30.2 °F 93% 29.84 in 10.0 mi NNW 13.8 mph - N/A   Overcast
3:15 AM 32.0 °F 21.6 °F 30.2 °F 93% 29.84 in 5.0 mi NNW 15.0 mph 20.7 mph N/A   Overcast
3:35 AM 32.0 °F 21.6 °F 30.2 °F 93% 29.84 in 5.0 mi NNW 15.0 mph - N/A   Overcast
3:55 AM 30.2 °F 17.8 °F 30.2 °F 100% 29.85 in 8.0 mi NNW 19.6 mph - N/A   Overcast
4:15 AM 30.2 °F 17.8 °F 30.2 °F 100% 29.85 in 5.0 mi NNW 19.6 mph - N/A   Overcast
4:35 AM 30.2 °F 18.9 °F 30.2 °F 100% 29.86 in 4.0 mi NNW 16.1 mph - N/A   Overcast
4:55 AM 30.2 °F 17.4 °F 28.4 °F 93% 29.87 in 3.0 mi NNW 20.7 mph 24.2 mph N/A   Overcast
5:15 AM 30.2 °F 18.1 °F 28.4 °F 93% 29.87 in 4.0 mi NNW 18.4 mph 21.9 mph N/A   Overcast
5:35 AM 30.2 °F 20.2 °F 28.4 °F 93% 29.88 in 10.0 mi NNW 12.7 mph - N/A   Overcast
5:55 AM 28.4 °F 15.8 °F 28.4 °F 100% 29.89 in 10.0 mi NNW 18.4 mph - N/A   Overcast
6:15 AM 28.4 °F 15.4 °F 26.6 °F 93% 29.90 in 10.0 mi NNW 19.6 mph 24.2 mph N/A   Overcast
6:35 AM 28.4 °F 15.4 °F 26.6 °F 93% 29.90 in 10.0 mi NNW 19.6 mph 23.0 mph N/A   Overcast
6:55 AM 26.6 °F 12.4 °F 24.8 °F 93% 29.90 in 10.0 mi NNW 21.9 mph 27.6 mph N/A   Overcast
7:15 AM 26.6 °F 13.1 °F 23.0 °F 86% 29.92 in 10.0 mi NNW 19.6 mph 24.2 mph N/A   Overcast
7:35 AM 24.8 °F 11.5 °F 21.2 °F 86% 29.92 in 10.0 mi NNW 17.3 mph - N/A   Overcast
7:55 AM 24.8 °F 11.1 °F 19.4 °F 80% 29.93 in 10.0 mi NNW 18.4 mph 26.5 mph N/A   Overcast
8:15 AM 23.0 °F 9.6 °F 19.4 °F 86% 29.94 in 10.0 mi NNW 16.1 mph - N/A   Overcast
8:35 AM 21.2 °F 6.8 °F 19.4 °F 93% 29.95 in 10.0 mi NNW 17.3 mph - N/A   Overcast
8:55 AM 21.2 °F 6.8 °F 19.4 °F 93% 29.95 in 10.0 mi NNW 17.3 mph 26.5 mph N/A   Overcast
9:15 AM 21.2 °F 7.8 °F 19.4 °F 93% 29.96 in 10.0 mi North 15.0 mph - N/A   Overcast
9:35 AM 21.2 °F 5.6 °F 17.6 °F 86% 29.97 in 9.0 mi NNW 20.7 mph - N/A   Overcast
9:55 AM 21.2 °F 6.8 °F 17.6 °F 86% 29.98 in 9.0 mi North 17.3 mph 25.3 mph N/A   Overcast
10:15 AM 21.2 °F 5.6 °F 17.6 °F 86% 29.98 in 9.0 mi North 20.7 mph - N/A   Overcast
10:35 AM 21.2 °F 5.6 °F 19.4 °F 93% 29.99 in 9.0 mi NNW 20.7 mph 24.2 mph N/A   Overcast
10:55 AM 19.4 °F 4.5 °F 17.6 °F 93% 30.00 in 10.0 mi NNW 17.3 mph 25.3 mph N/A   Overcast
11:15 AM 19.4 °F 5.0 °F 17.6 °F 93% 30.01 in 9.0 mi NNW 16.1 mph - N/A   Overcast
11:35 AM 19.4 °F 2.8 °F 15.8 °F 86% 30.01 in 10.0 mi North 21.9 mph 26.5 mph N/A   Overcast
11:55 AM 19.4 °F 2.8 °F 15.8 °F 86% 30.00 in 9.0 mi NNW 21.9 mph 26.5 mph N/A   Overcast
12:15 PM 19.4 °F 3.2 °F 17.6 °F 93% 29.99 in 10.0 mi NNW 20.7 mph - N/A   Overcast
12:35 PM 19.4 °F 4.1 °F 17.6 °F 93% 30.00 in 10.0 mi NNW 18.4 mph - N/A   Overcast
12:55 PM 19.4 °F 2.5 °F 15.8 °F 86% 30.00 in 10.0 mi NNW 23.0 mph 26.5 mph N/A   Overcast
1:15 PM 19.4 °F 3.2 °F 15.8 °F 86% 30.00 in 10.0 mi NNW 20.7 mph 25.3 mph N/A   Overcast
1:35 PM 19.4 °F 3.6 °F 17.6 °F 93% 30.01 in 10.0 mi North 19.6 mph 27.6 mph N/A   Overcast
1:55 PM 19.4 °F 5.0 °F 14.0 °F 80% 30.01 in 10.0 mi NNW 16.1 mph 24.2 mph N/A   Overcast
2:15 PM 19.4 °F 3.2 °F 15.8 °F 86% 30.01 in 10.0 mi North 20.7 mph 27.6 mph N/A   Overcast
2:35 PM 19.4 °F 4.1 °F 15.8 °F 86% 30.01 in 9.0 mi North 18.4 mph 29.9 mph N/A   Overcast
2:55 PM 19.4 °F 3.2 °F 15.8 °F 86% 30.02 in 7.0 mi NNW 20.7 mph 25.3 mph N/A   Overcast
3:15 PM 17.6 °F 0.1 °F 12.2 °F 79% 30.03 in 9.0 mi North 23.0 mph 28.8 mph N/A   Mostly Cloudy
3:35 PM 17.6 °F 1.7 °F 12.2 °F 79% 30.04 in 9.0 mi North 18.4 mph - N/A   Mostly Cloudy
3:55 PM 17.6 °F 2.2 °F 12.2 °F 79% 30.05 in 9.0 mi North 17.3 mph 28.8 mph N/A   Overcast
4:15 PM 17.6 °F 0.9 °F 10.4 °F 73% 30.07 in 9.0 mi North 20.7 mph 24.2 mph N/A   Overcast
4:35 PM 17.6 °F 0.9 °F 12.2 °F 79% 30.07 in 9.0 mi NNW 20.7 mph 25.3 mph N/A   Overcast
4:55 PM 17.6 °F 2.7 °F 10.4 °F 73% 30.08 in 9.0 mi NNW 16.1 mph - N/A   Overcast
5:15 PM 17.6 °F 1.3 °F 14.0 °F 86% 30.09 in 10.0 mi NNW 19.6 mph 29.9 mph N/A   Overcast
5:35 PM 15.8 °F -0.2 °F 10.4 °F 79% 30.10 in 10.0 mi North 17.3 mph - N/A   Overcast
5:55 PM 15.8 °F -1.1 °F 10.4 °F 79% 30.10 in 10.0 mi NNW 19.6 mph 25.3 mph N/A   Overcast
6:15 PM 15.8 °F -1.5 °F 10.4 °F 79% 30.11 in 10.0 mi NNW 20.7 mph 25.3 mph N/A   Overcast
6:35 PM 15.8 °F -1.1 °F 10.4 °F 79% 30.12 in 10.0 mi NNW 19.6 mph 28.8 mph N/A   Overcast
6:55 PM 15.8 °F -1.1 °F 12.2 °F 86% 30.12 in 10.0 mi NNW 19.6 mph 25.3 mph N/A   Overcast
7:15 PM 15.8 °F -1.5 °F 10.4 °F 79% 30.13 in 10.0 mi NNW 20.7 mph 25.3 mph N/A   Overcast
7:35 PM 15.8 °F -1.1 °F 8.6 °F 73% 30.14 in 10.0 mi North 19.6 mph 24.2 mph N/A   Overcast
7:55 PM 14.0 °F -3.0 °F 8.6 °F 79% 30.15 in 10.0 mi NNW 18.4 mph - N/A   Overcast
8:15 PM 12.2 °F -5.3 °F 8.6 °F 85% 30.15 in 10.0 mi NNW 18.4 mph - N/A   Overcast
8:35 PM 12.2 °F -6.7 °F 8.6 °F 85% 30.16 in 8.0 mi NNW 21.9 mph 25.3 mph N/A   Mostly Cloudy
8:55 PM 12.2 °F -5.3 °F 6.8 °F 79% 30.16 in 9.0 mi NNW 18.4 mph 25.3 mph N/A   Overcast
9:15 PM 12.2 °F -4.3 °F 6.8 °F 79% 30.16 in 7.0 mi NNW 16.1 mph 24.2 mph N/A   Overcast
9:35 PM 12.2 °F -5.3 °F 6.8 °F 79% 30.17 in 10.0 mi NNW 18.4 mph 25.3 mph N/A   Overcast
9:55 PM 10.4 °F -8.2 °F 6.8 °F 85% 30.17 in 7.0 mi NNW 19.6 mph 23.0 mph N/A   Overcast
10:15 PM 10.4 °F -7.7 °F 6.8 °F 85% 30.18 in 6.0 mi North 18.4 mph 21.9 mph N/A   Overcast
10:35 PM 10.4 °F -7.7 °F 5.0 °F 79% 30.18 in 7.0 mi North 18.4 mph - N/A   Overcast
10:55 PM 10.4 °F -6.6 °F 3.2 °F 73% 30.19 in 10.0 mi North 16.1 mph - N/A   Mostly Cloudy
11:15 PM 8.6 °F -8.3 °F 3.2 °F 79% 30.19 in 10.0 mi NNW 15.0 mph 18.4 mph N/A   Mostly Cloudy
11:35 PM 8.6 °F -6.3 °F 3.2 °F 79% 30.20 in 10.0 mi NNW 11.5 mph - N/A   Mostly Cloudy
11:55 PM 8.6 °F -7.7 °F 3.2 °F 79% 30.20 in 6.0 mi NNW 13.8 mph - N/A   Overcast